Wind_Speed
27 26 26 28 28 26 26 27 27 25 24 24 24 23 22 22 23 23 22 23 23 22 21 21 21 21 21 20 21 21 22 22 23 23 24 24 24 24 24 25 25 25 26 26
29 29 29 30 30 29 29 28 29 28 27 25 25 24 24 25 26 26 26 26 26 24 23 24 24 24 23 23 23 23 23 24 24 25 25 25 26 26 27 27 27 28 28 28
31 31 30 31 31 31 30 30 31 30 29 28 27 27 27 27 27 28 28 27 27 26 25 25 26 26 26 25 24 24 24 25 26 26 27 28 28 28 28 29 30 30 30 31
33 33 34 31 30 31 31 31 30 31 30 30 29 29 28 27 28 29 28 28 28 27 27 27 27 27 27 27 26 25 25 26 26 27 28 29 29 29 30 31 30 31 32 33
34 34 34 32 31 31 31 32 30 30 29 29 29 30 29 29 30 30 30 29 29 30 29 29 28 27 28 28 28 27 27 28 28 29 29 30 31 31 32 32 32 33 34 35
34 35 35 32 31 30 31 32 31 31 31 31 31 31 30 30 31 30 30 30 30 30 30 30 29 29 29 29 30 30 30 30 30 30 31 31 32 32 33 34 34 34 34 35
35 35 34 32 31 30 31 30 30 31 33 32 31 31 31 31 31 31 31 31 30 30 31 30 30 30 30 31 31 32 32 32 32 33 33 33 33 34 34 35 35 35 35 36
36 35 35 33 32 32 31 30 30 30 32 32 32 31 31 31 31 31 32 32 31 31 31 31 31 31 31 32 33 33 34 34 34 35 35 35 36 36 36 36 37 37 37 36
36 36 34 34 33 33 32 31 30 31 32 32 32 31 31 30 31 32 32 32 32 32 32 31 32 32 32 33 34 35 35 35 36 36 36 36 37 37 37 38 38 37 37 37
37 37 35 34 34 34 33 32 32 32 33 33 33 31 31 32 31 31 32 33 34 33 32 32 31 32 32 33 34 35 35 35 35 36 36 36 36 37 37 37 37 37 37 37
38 37 36 35 35 35 35 33 32 32 33 32 32 32 31 32 32 32 34 33 33 33 32 32 33 34 34 34 35 35 35 35 35 36 35 35 35 36 36 37 37 37 37 37
38 37 37 36 35 35 35 35 33 33 33 33 33 33 31 31 32 32 32 33 34 35 35 35 34 34 34 34 35 35 35 35 35 36 36 36 35 35 35 35 36 36 36 36
37 38 38 36 36 35 35 35 34 33 33 34 34 33 32 32 32 33 34 34 34 35 35 34 33 33 34 35 35 36 36 36 35 36 36 36 36 35 35 35 35 35 35 36
36 36 37 36 36 36 35 34 34 33 32 31 32 32 33 33 34 35 35 35 35 35 34 33 34 35 35 34 35 36 36 36 35 35 35 35 35 35 35 34 35 35 35 35
35 35 34 34 35 35 34 34 34 33 32 32 32 33 33 34 34 34 34 34 34 34 34 34 35 35 35 34 34 34 35 35 35 34 34 34 34 34 34 34 34 34 34 35
33 33 34 34 33 34 35 34 34 33 33 33 34 34 33 33 34 34 34 33 34 34 34 34 34 34 34 35 34 34 34 35 35 35 35 35 35 34 34 34 34 34 34 34
33 32 32 33 33 32 33 33 33 34 33 33 32 32 32 33 33 33 33 33 33 32 32 33 33 33 34 34 34 34 34 33 33 33 33 33 33 33 33 34 34 33 33 33
31 31 31 31 32 33 33 33 32 32 32 32 32 32 32 32 33 33 32 31 31 31 31 31 32 32 33 33 33 33 32 32 32 32 32 32 32 32 32 31 31 32 32 32
27 29 29 29 29 30 30 31 32 31 31 32 31 31 31 31 31 31 31 31 30 30 30 31 32 32 32 32 32 31 32 32 31 31 32 32 32 32 31 31 31 31 31 32
26 27 26 26 27 28 28 28 28 28 29 29 30 29 29 29 29 30 30 29 29 29 30 30 30 31 30 31 31 30 31 31 31 31 32 32 31 30 30 30 31 31 32 32
24 24 24 24 25 26 26 27 26 26 27 27 28 27 28 28 29 29 28 28 28 29 29 29 29 30 30 30 30 30 30 30 31 31 32 32 31 31 31 31 31 31 31 32
21 21 22 23 23 24 24 24 25 25 25 25 26 26 27 27 27 27 27 27 28 28 28 28 29 29 29 30 29 30 30 30 31 32 32 31 31 31 31 30 30 31 31 31
20 20 21 23 23 23 23 24 24 24 24 24 24 25 25 25 25 26 26 27 27 27 27 27 28 28 28 29 30 30 30 30 31 31 31 31 31 31 31 31 31 31 31 31
19 19 19 21 22 22 23 23 22 22 23 23 23 23 23 24 24 25 25 25 26 26 26 26 27 28 29 30 31 30 29 30 30 30 31 31 31 31 31 31 32 32 32 32
19 18 18 19 20 20 21 21 21 22 22 22 23 23 24 24 24 24 24 25 26 26 27 27 28 29 30 30 30 30 30 30 30 31 31 31 31 31 32 32 32 32 32 31
18 18 19 20 20 20 20 20 21 21 22 22 22 22 23 23 24 24 25 25 26 26 27 28 29 30 30 30 30 30 31 30 30 30 30 30 30 30 31 31 31 31 31 30
17 17 18 18 19 19 20 20 20 20 20 21 22 22 22 23 23 24 24 25 26 27 27 28 28 28 29 29 30 29 29 29 29 29 29 29 29 29 29 30 30 30 29 28
Wind_Direction
244 243 242 244 246 249 252 256 261 266 268 268 271 275 277 278 282 286 288 291 293 295 295 296 294 290 288 286 286 285 285 286 287 286 288 289 289 290 290 289 292 293 294 296
244 246 247 246 248 250 253 257 260 265 267 270 269 272 275 279 282 285 289 290 290 292 292 292 290 288 288 286 286 285 285 285 287 288 287 289 289 288 289 290 291 291 292 293
244 247 250 250 250 251 253 255 259 262 266 268 270 273 276 278 280 282 286 289 290 289 290 291 288 288 287 286 286 286 285 285 285 287 287 288 289 288 289 289 288 289 291 292
246 248 251 254 253 253 253 255 258 260 264 268 272 274 276 276 278 282 284 286 287 287 287 287 287 288 286 286 286 285 285 286 287 287 287 287 289 289 290 291 291 293 293 294
248 250 254 255 254 254 256 256 257 261 264 268 271 273 273 274 276 280 282 284 285 284 284 284 285 286 286 287 286 286 286 286 287 288 287 288 288 289 291 292 293 294 295 294
249 252 254 256 256 257 258 258 258 261 264 266 269 271 273 274 276 279 281 283 285 285 285 284 285 286 287 286 286 286 286 286 287 287 286 287 287 289 291 292 293 294 294 293
251 254 255 257 258 257 258 261 263 263 264 266 270 273 276 277 277 277 280 284 285 285 284 283 282 284 285 285 284 284 285 285 286 286 285 285 287 289 290 291 292 294 294 294
250 253 256 258 259 258 260 263 263 263 264 267 269 273 277 278 278 278 280 280 282 284 284 284 283 283 283 283 283 283 284 285 285 286 286 286 287 289 290 290 292 293 293 294
250 253 257 258 259 260 261 262 263 265 266 269 270 272 274 277 277 279 279 280 281 282 283 284 285 284 282 283 282 283 283 284 286 286 286 287 288 288 289 290 291 292 293 293
250 252 255 256 258 259 261 263 264 266 267 270 271 273 274 277 277 277 277 280 281 283 284 284 284 284 283 284 284 284 285 285 285 285 285 286 287 287 288 289 290 292 292 293
249 252 254 255 257 259 261 264 263 264 266 270 272 273 274 276 275 274 276 279 281 281 283 283 282 283 285 285 285 285 285 286 285 285 286 287 287 287 287 288 289 290 291 292
248 251 253 255 258 261 262 264 265 265 266 267 269 270 273 274 274 275 277 278 279 280 282 281 281 283 285 286 286 286 286 287 288 288 288 288 288 288 289 289 289 290 291 292
250 251 253 255 257 259 261 262 264 265 267 268 269 271 273 275 275 275 277 279 281 281 282 281 281 283 284 284 285 286 286 286 287 288 289 289 289 289 289 288 289 290 291 291
252 253 254 254 255 257 259 261 263 263 268 271 271 271 273 273 275 276 276 277 278 280 281 282 283 284 284 284 285 286 287 286 286 288 289 288 288 287 287 287 288 288 290 290
253 255 257 258 259 259 261 261 264 266 268 270 270 271 273 274 275 277 277 278 279 280 282 284 285 285 285 286 287 287 288 287 287 287 287 287 287 287 287 288 289 289 289 289
254 255 256 257 260 260 262 262 263 268 271 271 270 271 275 275 276 277 279 280 281 281 282 284 284 285 285 285 286 286 287 287 287 287 288 287 286 286 287 288 289 289 288 289
255 255 257 260 262 264 263 265 267 268 271 271 270 272 274 276 278 279 280 282 283 283 283 284 284 285 286 287 286 286 287 287 288 288 288 288 288 288 289 288 288 289 290 290
253 255 259 262 263 264 264 267 268 270 273 274 274 274 276 277 278 279 280 281 284 285 284 284 285 286 287 287 287 287 288 288 289 289 289 289 288 289 290 291 291 291 290 289
255 257 259 262 264 266 267 267 268 270 271 273 274 275 276 277 278 279 279 281 282 283 284 285 286 286 287 287 288 287 288 288 289 289 289 289 290 290 290 290 289 290 290 290
257 258 259 262 265 267 267 268 268 269 270 271 273 274 274 276 277 279 279 279 281 283 285 285 285 285 286 289 289 288 288 289 288 289 290 290 290 291 290 290 290 290 290 290
256 257 259 262 266 267 268 270 271 272 273 272 273 274 274 275 276 278 279 280 282 284 286 286 286 286 288 289 290 289 288 288 287 288 290 290 290 291 290 290 290 291 291 291
255 257 258 260 263 266 269 271 273 274 275 275 275 275 277 277 277 278 279 281 283 284 286 287 288 288 289 291 291 291 290 289 289 290 291 290 290 290 290 291 291 291 291 291
255 256 258 260 263 266 269 271 273 274 275 276 278 279 279 280 280 279 279 280 282 285 286 288 289 289 290 291 292 293 293 291 292 292 292 291 292 291 291 291 292 292 291 291
259 261 261 262 264 267 269 271 273 274 275 277 279 281 283 283 282 282 281 282 283 285 287 290 291 291 291 292 292 293 293 293 293 293 293 293 291 290 290 291 291 292 291 290
261 263 263 265 266 268 270 272 273 274 276 278 280 282 283 284 285 286 286 286 287 288 289 289 291 292 292 292 292 292 292 293 294 295 295 293 292 291 290 291 292 293 292 291
261 263 265 266 267 269 271 273 275 278 281 282 283 283 285 286 287 288 287 287 288 289 291 292 292 293 293 293 293 293 293 294 294 295 294 294 293 293 292 292 293 293 292 291
264 265 266 266 268 270 273 275 278 279 281 281 282 284 286 288 289 290 290 290 291 292 294 294 295 295 295 294 294 294 294 295 295 295 296 296 295 295 295 295 295 294 293 292
Height
5883 5885 5886 5888 5889 5890 5890 5891 5891 5891 5891 5891 5891 5890 5890 5890 5889 5888 5887 5887 5886 5885 5884 5883 5882 5881 5880 5878 5878 5876 5875 5874 5872 5871 5869 5868 5866 5864 5862 5860 5859 5857 5855 5854
5877 5878 5880 5881 5883 5884 5885 5885 5885 5885 5885 5886 5885 5885 5884 5884 5883 5882 5881 5880 5879 5878 5877 5877 5876 5875 5873 5872 5871 5870 5868 5867 5866 5864 5862 5861 5859 5857 5855 5853 5852 5850 5848 5847
5869 5871 5872 5874 5876 5877 5877 5878 5879 5878 5880 5879 5879 5878 5878 5877 5876 5876 5875 5873 5872 5871 5871 5870 5869 5868 5867 5865 5864 5863 5861 5860 5859 5857 5855 5854 5851 5850 5848 5846 5844 5842 5840 5838
5861 5864 5864 5868 5868 5868 5869 5870 5871 5871 5872 5872 5872 5871 5871 5870 5869 5868 5867 5867 5866 5865 5864 5863 5862 5861 5859 5857 5856 5855 5854 5852 5851 5849 5848 5846 5844 5842 5839 5837 5835 5833 5831 5829
5853 5854 5856 5859 5860 5861 5862 5862 5864 5864 5865 5865 5864 5864 5863 5863 5862 5861 5860 5859 5859 5858 5856 5855 5854 5852 5851 5849 5848 5847 5846 5844 5843 5841 5839 5837 5835 5833 5831 5829 5826 5824 5822 5820
5844 5846 5847 5851 5853 5853 5854 5854 5856 5856 5856 5857 5856 5856 5857 5855 5854 5853 5852 5851 5850 5849 5847 5846 5845 5843 5842 5841 5839 5838 5837 5835 5833 5832 5830 5828 5826 5824 5822 5820 5817 5815 5812 5810
5835 5836 5838 5842 5843 5845 5846 5847 5847 5847 5847 5848 5848 5848 5848 5846 5846 5845 5844 5842 5841 5840 5838 5837 5836 5835 5834 5832 5831 5829 5828 5826 5824 5822 5820 5818 5816 5814 5812 5810 5808 5805 5803 5800
5826 5828 5832 5833 5834 5836 5837 5837 5838 5838 5839 5839 5839 5839 5839 5838 5836 5835 5834 5834 5832 5831 5830 5829 5827 5825 5824 5823 5821 5820 5818 5817 5815 5812 5810 5808 5806 5804 5802 5800 5797 5795 5792 5790
5818 5821 5822 5823 5825 5826 5827 5828 5829 5830 5830 5830 5831 5831 5830 5828 5828 5827 5826 5825 5823 5822 5821 5819 5818 5816 5814 5813 5812 5810 5809 5807 5805 5802 5800 5798 5796 5794 5791 5789 5787 5784 5782 5779
5808 5809 5812 5814 5815 5816 5818 5819 5820 5821 5822 5821 5822 5822 5821 5820 5819 5818 5818 5816 5815 5813 5811 5809 5808 5806 5805 5804 5802 5800 5799 5797 5795 5792 5790 5787 5785 5783 5781 5778 5776 5773 5771 5768
5798 5801 5803 5805 5807 5808 5809 5810 5811 5812 5812 5812 5812 5812 5812 5811 5810 5809 5808 5806 5805 5804 5802 5801 5799 5798 5796 5794 5792 5790 5788 5787 5784 5781 5779 5777 5774 5772 5770 5768 5765 5763 5760 5758
5789 5792 5794 5796 5798 5799 5800 5801 5802 5802 5802 5802 5803 5803 5803 5802 5800 5799 5798 5797 5796 5794 5793 5792 5790 5788 5786 5784 5782 5780 5778 5776 5774 5771 5768 5766 5764 5762 5759 5757 5754 5752 5749 5747
5780 5782 5784 5786 5788 5789 5789 5791 5792 5793 5793 5793 5793 5793 5793 5792 5791 5791 5789 5788 5785 5784 5783 5781 5779 5778 5776 5774 5772 5769 5767 5765 5763 5761 5758 5756 5753 5751 5749 5747 5744 5741 5739 5736
5771 5773 5774 5776 5778 5779 5780 5781 5782 5782 5783 5783 5783 5784 5783 5782 5781 5780 5779 5778 5776 5774 5773 5771 5770 5768 5765 5763 5761 5758 5756 5754 5752 5750 5748 5745 5743 5740 5738 5736 5734 5731 5728 5726
5761 5763 5765 5766 5768 5769 5770 5771 5772 5773 5774 5774 5774 5774 5773 5772 5771 5770 5769 5767 5766 5764 5763 5761 5759 5758 5755 5753 5751 5748 5746 5744 5741 5739 5737 5735 5732 5730 5728 5725 5723 5720 5718 5715
5753 5754 5756 5757 5758 5759 5761 5762 5762 5763 5764 5764 5764 5764 5763 5762 5761 5760 5759 5757 5756 5755 5753 5751 5749 5748 5745 5743 5741 5738 5736 5734 5731 5729 5727 5724 5722 5720 5717 5715 5712 5710 5708 5705
5744 5745 5747 5748 5749 5750 5751 5752 5752 5753 5753 5754 5753 5753 5753 5752 5751 5750 5749 5747 5746 5744 5743 5741 5739 5737 5735 5733 5730 5728 5726 5724 5722 5719 5717 5714 5711 5709 5707 5704 5702 5700 5698 5695
5735 5736 5737 5739 5740 5741 5742 5743 5743 5743 5743 5743 5743 5743 5742 5742 5741 5740 5739 5738 5737 5735 5733 5731 5729 5727 5725 5723 5720 5718 5716 5714 5712 5709 5707 5704 5702 5699 5696 5694 5692 5690 5688 5685
5726 5728 5730 5731 5732 5732 5733 5734 5734 5734 5734 5734 5734 5734 5733 5733 5732 5731 5730 5729 5727 5726 5724 5722 5720 5718 5715 5713 5710 5708 5706 5704 5702 5699 5697 5695 5692 5690 5687 5685 5682 5680 5678 5675
5719 5721 5722 5723 5724 5725 5725 5725 5726 5726 5726 5726 5725 5725 5724 5724 5723 5722 5720 5719 5718 5717 5715 5713 5710 5708 5706 5703 5701 5698 5696 5694 5692 5690 5687 5685 5682 5680 5677 5675 5672 5670 5668 5665
5712 5714 5715 5716 5716 5717 5717 5717 5718 5718 5718 5717 5717 5716 5716 5715 5714 5713 5712 5711 5709 5707 5705 5703 5701 5699 5697 5694 5692 5689 5687 5685 5682 5680 5677 5675 5672 5670 5667 5665 5662 5660 5657 5655
5705 5707 5708 5708 5709 5710 5710 5710 5710 5710 5709 5709 5708 5707 5707 5706 5705 5704 5703 5702 5701 5699 5697 5695 5692 5690 5688 5685 5683 5680 5677 5675 5673 5670 5667 5665 5663 5660 5657 5655 5652 5650 5647 5644
5698 5699 5700 5701 5702 5703 5703 5703 5702 5702 5701 5701 5700 5699 5699 5698 5697 5696 5695 5693 5692 5690 5688 5686 5684 5681 5679 5676 5674 5671 5668 5666 5663 5660 5657 5655 5652 5650 5648 5645 5642 5640 5637 5634
5692 5693 5694 5695 5695 5696 5696 5696 5695 5695 5694 5694 5693 5692 5691 5690 5688 5687 5686 5684 5683 5681 5680 5677 5675 5673 5670 5667 5664 5662 5659 5656 5653 5650 5648 5645 5642 5640 5637 5635 5632 5629 5627 5624
5686 5687 5688 5688 5689 5689 5689 5689 5689 5688 5687 5686 5686 5685 5683 5682 5680 5679 5677 5676 5674 5672 5671 5669 5666 5663 5660 5657 5655 5652 5649 5646 5643 5640 5638 5635 5632 5629 5627 5624 5621 5618 5616 5613
5681 5682 5682 5683 5683 5683 5683 5682 5682 5681 5681 5680 5678 5677 5676 5674 5672 5671 5669 5668 5666 5664 5662 5659 5657 5654 5651 5648 5645 5642 5639 5636 5634 5631 5628 5624 5622 5619 5616 5613 5610 5608 5605 5602
5676 5676 5677 5677 5677 5677 5677 5676 5676 5675 5674 5673 5671 5670 5668 5666 5665 5663 5661 5660 5658 5655 5653 5650 5647 5644 5642 5638 5635 5633 5630 5627 5624 5621 5618 5615 5612 5609 5606 5603 5600 5597 5595 5592